ASTRA 2G

Last updated on Wed Oct 29 2025 00:02:48 GMT+0000 (Coordinated Universal Time)

1 40364U 14089A 25301.62043007 .00000160 00000+0 00000+0 0 9997 2 40364 0.0552 27.1473 0001140 56.6384 205.0027 1.00272167 39647
UTC large
Height (km)
Speed (km/s)
/
Latitude / Longitude
Inclination (degrees)
Orbital Period (minutes)
Azimuth
Elevation
Range (km)
Doppler Factor

Next 0 passes for location: London (51.5072 / 0.1276)

Sorry there are no passes over London.